Flag for South Africa Weather past 2 weeks in Rustenburg, South Africa

Now
64 °F

Passing clouds.


Feels Like: 64 °F
Forecast: 43 / 80 °F
Wind: 3 mph from Northeast

Location: Lanseria Civ / Mil

Current Time: May 28, 2015 at 11:00:32 AM

Latest Report: May 28, 2015 at 10:00 AM


Visibility: N/A

Pressure: 30.36 "Hg

Humidity: 30%

Dew point: 32 °F

Location of RustenburgLocation

Historic Weather in Rustenburg — Graph

°F

Rustenburg temperature yesterday

Maximum temperature yesterday: 79 °F (at 2:00 PM)
Minimum temperature yesterday: 46 °F (at 5:00 AM)
Average temperature yesterday: 62 °F

Past Weeks' High & Low Weather Summary

 TemperatureHumidityPressure
High82 °F (May 14, 2:00 PM)100% (May 18, 5:00 AM)30.51 "Hg (May 18, 5:00 AM)
Low43 °F (May 14, 6:00 AM)7% (May 14, 4:00 PM)30.12 "Hg (May 13, 3:00 PM)
Average61 °F45%30.33 "Hg
* Reported May 13 9:00 AM — May 28 9:00 AM, Rustenburg, Weather by CustomWeather, © 2015

Note: Actual official high and low records may vary slightly from our data, if they occured in-between our weather recording intervals... More about our weather records

Advertising

Rustenburg weather history for previous 24 hours

 ConditionsComfort  
Time TempWeatherWind HumidityBarometerVisibility
9:00 AM
Thu, May 28
57 °FSunny.2 mph41%30.36 "Hg10 mi
8:00 AM52 °FSunny.2 mph50%30.33 "Hg10 mi
7:00 AM46 °FSunny.No wind57%30.30 "Hg10 mi
6:00 AM43 °FSunny.2 mph66%30.30 "Hg10 mi
5:00 AM46 °FCool.5 mph62%30.30 "HgN/A
4:00 AM45 °FQuite cool.3 mph66%30.30 "HgN/A
3:00 AM46 °FCool.2 mph57%30.30 "HgN/A
2:00 AM48 °FCool.8 mph54%30.30 "HgN/A
1:00 AM50 °FCool.7 mph58%30.30 "HgN/A
12:00 AM54 °FCool.1 mph41%30.30 "HgN/A
11:00 PM
Wed, May 27
55 °FRefreshingly cool.2 mph38%30.30 "HgN/A
10:00 PM59 °FPassing clouds.3 mph31%30.30 "HgN/A
9:00 PM59 °FPassing clouds.5 mph29%30.30 "HgN/A
8:00 PM63 °FClear.6 mph25%30.30 "Hg10 mi
7:00 PM66 °FClear.1 mph22%30.27 "Hg10 mi
6:00 PM70 °FClear.5 mph20%30.24 "Hg10 mi
5:00 PM73 °FClear.7 mph17%30.24 "Hg10 mi
4:00 PM77 °FSunny.3 mph14%30.24 "Hg10 mi
3:00 PM77 °FPassing clouds.3 mph14%30.24 "HgN/A
2:00 PM79 °FPassing clouds.12 mph13%30.27 "HgN/A
1:00 PM77 °FSunny.6 mph15%30.27 "Hg10 mi
12:00 PM75 °FPassing clouds.7 mph21%30.30 "HgN/A
11:00 AM73 °FPassing clouds.7 mph23%30.33 "HgN/A
Weather by CustomWeather, © 2015

See weather overviewHow to use our weather pages